Tracking 25378 objects as of 22-Jan-2022
HD Live streaming from Space Station
objects crossing your sky now

EUTE 8 WEST A (AB 2)

Track EUTE 8 WEST A (AB 2) now!
EUTE 8 WEST A (AB 2) is classified as:


NORAD ID: 26927
Int'l Code: 2001-042A
Perigee: 36,261.7 km
Apogee: 36,319.2 km
Inclination: 2.5 °
Period: 1,461.5 minutes
Semi major axis: 42661 km
RCS: 14.2528 m2 (large)
Launch date: September 25, 2001
Source: European Telecommunications Satellite Organization (EUTE)
Launch site: FRENCH GUIANA (FRGUI)

European and American coverage.
aabbcc
Your satellite tracking list
Your tracking list is empty




NASA's NSSDC Master Catalog

Two Line Element Set (TLE):
1 26927U 01042A   22021.52943549  .00000001  00000-0  00000-0 0  9992
2 26927   2.4767  88.5623 0006737 189.6114 303.8865  0.98525642 74318
Source of the keplerian elements: AFSPC